Date String (YYYY-MM-DD hh:mm:ss) UTC,Instrument flags,Ambient pressure (hPa),Sample flow (lpm),Bypass flow (lpm),Sample temperature (°C),Ambient temperature (°C),ASC tube jacket temperature (°C),LED temperature (°C),Box temperature (°C),Sample RH (%),Span deviation,Mass concentration (μg/m³),Mass concentration (μg/m³),Mass concentration (μg/m³)
DateTimeUTC,F1_M11,P_M11,Q1_M11,Q2_M11,T1_M11,T2_M11,T3_M11,T4_M11,T5_M11,U1_M11,ZSPAN_M11,X2_M11,X0_M11,X1_M11
2022-12-17 03:00:00,,0822.1,4.98,0.00,21.6,20.7,00.0,30.4,23.3,03.5,0000.0,0001.82,0002.88,0001.38
2022-12-17 03:01:00,,0822.2,5.04,0.00,21.6,20.3,00.0,30.4,23.2,03.5,0000.0,0001.81,0003.03,0001.38
2022-12-17 03:02:00,,0822.1,4.97,0.00,21.5,20.1,00.0,30.4,23.1,03.5,0000.0,0001.81,0003.02,0001.39
2022-12-17 03:03:00,,0822.1,5.05,0.00,21.5,19.9,00.0,30.4,23.1,03.6,0000.0,0001.83,0003.03,0001.41
2022-12-17 03:04:00,,0822.1,4.97,0.00,21.4,19.7,00.0,30.4,23.0,03.6,0000.0,0001.82,0003.01,0001.43
2022-12-17 03:05:00,,0822.1,5.03,0.00,21.4,19.7,00.0,30.4,23.0,03.6,0000.0,0001.83,0003.06,0001.43
2022-12-17 03:06:00,,0822.1,4.97,0.00,21.4,20.6,00.0,30.3,23.2,03.6,0000.0,0001.78,0002.96,0001.40
2022-12-17 03:07:00,,0822.1,4.99,0.00,21.6,21.6,00.0,30.3,23.4,03.6,0000.0,0001.74,0002.82,0001.39
2022-12-17 03:08:00,,0821.9,4.99,0.00,21.6,21.7,00.0,30.3,23.5,03.6,0000.0,0001.75,0002.72,0001.38
2022-12-17 03:09:00,,0822.2,5.03,0.00,21.6,21.2,00.0,30.4,23.4,03.6,0000.0,0001.71,0002.61,0001.38
2022-12-17 03:10:00,,0821.8,5.00,0.00,21.6,20.7,00.0,30.4,23.3,03.5,0000.0,0001.71,0002.60,0001.39
2022-12-17 03:11:00,,0821.8,4.97,0.00,21.6,20.4,00.0,30.4,23.2,03.5,0000.0,0001.68,0002.53,0001.38
2022-12-17 03:12:00,,0821.8,5.05,0.00,21.5,20.1,00.0,30.4,23.1,03.5,0000.0,0001.68,0002.38,0001.38
2022-12-17 03:13:00,,0821.8,4.97,0.00,21.5,19.9,00.0,30.4,23.1,03.5,0000.0,0001.67,0002.44,0001.38
2022-12-17 03:14:00,,0821.8,5.03,0.00,21.4,19.7,00.0,30.4,23.0,03.5,0000.0,0001.65,0002.41,0001.37
2022-12-17 03:15:00,,0821.8,4.96,0.00,21.4,19.8,00.0,30.3,22.9,03.5,0000.0,0001.62,0002.36,0001.35
2022-12-17 03:16:00,,0821.8,5.05,0.00,21.5,20.9,00.0,30.3,23.2,03.5,0000.0,0001.60,0002.71,0001.33
2022-12-17 03:17:00,,0821.8,4.96,0.00,21.6,21.9,00.0,30.3,23.5,03.5,0000.0,0001.60,0002.89,0001.33
2022-12-17 03:18:00,,0821.8,5.01,0.00,21.7,22.0,00.0,30.3,23.6,03.5,0000.0,0001.62,0002.94,0001.32
2022-12-17 03:19:00,,0821.7,5.01,0.00,21.7,21.3,00.0,30.4,23.4,03.6,0000.0,0001.61,0002.99,0001.31
2022-12-17 03:20:00,,0821.7,4.98,0.00,21.6,20.8,00.0,30.4,23.3,03.5,0000.0,0001.59,0003.07,0001.27
2022-12-17 03:21:00,,0821.7,5.01,0.00,21.6,20.4,00.0,30.4,23.2,03.4,0000.0,0001.60,0003.61,0001.25
2022-12-17 03:22:00,,0821.6,4.96,0.00,21.5,20.1,00.0,30.4,23.1,03.5,0000.0,0001.62,0004.06,0001.26
2022-12-17 03:23:00,,0821.6,5.04,0.00,21.5,19.9,00.0,30.4,23.0,03.5,0000.0,0001.61,0003.98,0001.25
2022-12-17 03:24:00,,0821.5,4.97,0.00,21.4,19.7,00.0,30.4,23.0,03.5,0000.0,0001.60,0003.87,0001.24
2022-12-17 03:25:00,,0821.6,5.04,0.00,21.4,19.7,00.0,30.4,22.9,03.5,0000.0,0001.57,0003.85,0001.21
2022-12-17 03:26:00,,0821.6,4.98,0.00,21.4,20.4,00.0,30.3,23.1,03.6,0000.0,0001.56,0003.86,0001.20
2022-12-17 03:27:00,,0821.6,5.00,0.00,21.5,21.6,00.0,30.3,23.4,03.5,0000.0,0001.58,0003.51,0001.20
2022-12-17 03:28:00,,0821.6,5.00,0.00,21.6,21.9,00.0,30.3,23.6,03.3,0000.0,0001.60,0003.42,0001.20
2022-12-17 03:29:00,,0821.6,5.05,0.00,21.6,21.2,00.0,30.4,23.4,03.3,0000.0,0001.61,0003.46,0001.21
2022-12-17 03:30:00,,0821.6,4.94,0.00,21.6,20.7,00.0,30.4,23.3,03.5,0000.0,0001.58,0003.33,0001.20
2022-12-17 03:31:00,,0821.6,5.05,0.00,21.5,20.4,00.0,30.4,23.2,03.6,0000.0,0001.57,0003.50,0001.22
2022-12-17 03:32:00,,0821.5,4.97,0.00,21.5,20.2,00.0,30.4,23.1,03.6,0000.0,0001.54,0003.43,0001.23
2022-12-17 03:33:00,,0821.5,5.04,0.00,21.5,19.9,00.0,30.4,23.1,03.6,0000.0,0001.52,0002.99,0001.24
2022-12-17 03:34:00,,0821.5,4.96,0.00,21.4,19.8,00.0,30.4,23.0,03.6,0000.0,0001.53,0003.04,0001.25
2022-12-17 03:35:00,,0821.4,5.03,0.00,21.4,19.8,00.0,30.3,23.0,03.6,0000.0,0001.54,0003.08,0001.25
2022-12-17 03:36:00,,0821.5,4.96,0.00,21.4,20.8,00.0,30.3,23.2,03.6,0000.0,0001.54,0003.07,0001.27
2022-12-17 03:37:00,,0821.5,5.00,0.00,21.6,22.0,00.0,30.3,23.5,03.6,0000.0,0001.53,0003.01,0001.28
2022-12-17 03:38:00,,0821.5,5.04,0.00,21.7,22.3,00.0,30.3,23.7,03.7,0000.0,0001.51,0002.90,0001.29
2022-12-17 03:39:00,,0821.4,4.96,0.00,21.7,21.8,00.0,30.4,23.6,03.7,0000.0,0001.50,0002.86,0001.30
2022-12-17 03:40:00,,0821.5,5.04,0.00,21.7,21.2,00.0,30.4,23.5,03.7,0000.0,0001.48,0002.83,0001.32
2022-12-17 03:41:00,,0821.5,4.97,0.00,21.7,20.8,00.0,30.4,23.4,03.8,0000.0,0001.51,0002.89,0001.34
2022-12-17 03:42:00,,0821.5,4.99,0.00,21.6,20.4,00.0,30.4,23.3,03.8,0000.0,0001.53,0002.63,0001.35
2022-12-17 03:43:00,,0821.5,5.01,0.00,21.6,20.1,00.0,30.4,23.1,03.8,0000.0,0001.52,0002.04,0001.35
2022-12-17 03:44:00,,0821.5,4.99,0.00,21.5,19.9,00.0,30.4,23.1,03.8,0000.0,0001.53,0002.04,0001.35
2022-12-17 03:45:00,,0821.5,5.00,0.00,21.5,19.7,00.0,30.4,23.0,03.8,0000.0,0001.52,0002.00,0001.35
2022-12-17 03:46:00,,0821.5,5.02,0.00,21.4,19.7,00.0,30.4,23.0,03.8,0000.0,0001.53,0002.01,0001.35
2022-12-17 03:47:00,,0821.5,5.00,0.00,21.5,20.6,00.0,30.4,23.2,03.8,0000.0,0001.52,0001.97,0001.35
2022-12-17 03:48:00,,0821.5,4.99,0.00,21.6,21.7,00.0,30.3,23.5,03.6,0000.0,0001.49,0001.92,0001.33
2022-12-17 03:49:00,,0821.5,4.99,0.00,21.7,21.8,00.0,30.4,23.6,03.5,0000.0,0001.46,0001.90,0001.31
2022-12-17 03:50:00,,0821.5,4.98,0.00,21.7,21.1,00.0,30.4,23.4,03.7,0000.0,0001.45,0001.87,0001.30
2022-12-17 03:51:00,,0821.6,5.04,0.00,21.6,20.7,00.0,30.4,23.3,03.7,0000.0,0001.41,0001.79,0001.29
2022-12-17 03:52:00,,0821.6,4.97,0.00,21.6,20.3,00.0,30.4,23.2,03.7,0000.0,0001.41,0001.83,0001.27
2022-12-17 03:53:00,,0821.6,5.03,0.00,21.5,19.9,00.0,30.4,23.1,03.5,0000.0,0001.40,0001.84,0001.25
2022-12-17 03:54:00,,0821.6,4.97,0.00,21.5,19.6,00.0,30.4,23.0,03.6,0000.0,0001.43,0001.95,0001.24
2022-12-17 03:55:00,,0821.7,5.03,0.00,21.4,19.6,00.0,30.4,23.0,03.7,0000.0,0001.47,0002.10,0001.23
2022-12-17 03:56:00,,0821.6,4.96,0.00,21.4,19.6,00.0,30.4,22.9,03.8,0000.0,0001.49,0002.17,0001.23
2022-12-17 03:57:00,,0821.6,5.04,0.00,21.4,20.4,00.0,30.3,23.1,03.8,0000.0,0001.47,0003.00,0001.23
2022-12-17 03:58:00,,0821.7,4.96,0.00,21.5,21.6,00.0,30.3,23.4,03.8,0000.0,0001.51,0003.40,0001.24
2022-12-17 03:59:00,,0821.8,5.01,0.00,21.6,21.8,00.0,30.3,23.6,03.8,0000.0,0001.54,0003.47,0001.25
